OE-11051 Weather Reports


time (UTC)temp
C
wind
direction
speed
KPH
gust
KPH
rain 1hr
cm
rain 24hr
cm
rain mn
cm
humidity
%
barometer
mb
20260903073506 19 266 6.4 14.5 0.00 0.00 0.00 66 1022.0
20260903072506 19 259 8.0 17.7 0.00 0.00 0.00 65 1022.0
20260903071120 18 257 9.7 14.5 0.00 0.00 0.00 66 1022.1
20260903070507 18 259 6.4 12.9 0.00 0.00 0.00 67 1022.1
20260903065507 18 256 6.4 11.3 0.00 0.00 0.00 68 1021.9
20260903064119 18 249 6.4 11.3 0.00 0.00 0.00 66 1021.9
20260903063506 18 241 6.4 9.7 0.00 0.00 0.00 69 1022.0
20260903062507 17 241 4.8 9.7 0.00 0.00 0.00 72 1022.1
20260903061120 17 245 4.8 8.0 0.00 0.00 0.00 73 1022.1
20260903060507 17 250 4.8 8.0 0.00 0.00 0.00 74 1022.1
20260903055506 16 244 6.4 8.0 0.00 0.00 0.00 76 1022.2
20260903054119 16 245 6.4 9.7 0.00 0.00 0.00 76 1022.0
20260903053507 16 242 6.4 9.7 0.00 0.00 0.00 77 1022.0
20260903052507 16 237 6.4 9.7 0.00 0.00 0.00 77 1022.1
20260903051120 16 238 4.8 8.0 0.00 0.00 0.00 77 1021.9
20260903050506 16 237 6.4 8.0 0.00 0.00 0.00 78 1021.8
20260903045507 16 227 6.4 9.7 0.00 0.00 0.00 77 1021.8
20260903044119 16 223 6.4 9.7 0.00 0.00 0.00 78 1021.7
20260903043506 16 229 6.4 11.3 0.00 0.00 0.00 77 1021.7
20260903042507 16 237 6.4 9.7 0.00 0.00 0.00 78 1021.7
20260903041119 16 232 6.4 9.7 0.00 0.00 0.00 77 1021.6
20260903040507 16 224 6.4 12.9 0.00 0.00 0.00 77 1021.6
20260903035507 16 225 6.4 9.7 0.00 0.00 0.00 78 1021.5
20260903034506 16 213 4.8 8.0 0.00 0.00 0.00 79 1021.5
20260903033506 16 226 6.4 9.7 0.00 0.00 0.00 79 1021.4
20260903032507 16 233 6.4 8.0 0.00 0.00 0.00 78 1021.4
20260903031120 16 243 6.4 9.7 0.00 0.00 0.00 78 1021.4
20260903030507 16 238 6.4 9.7 0.00 0.00 0.00 78 1021.4
20260903025507 16 235 4.8 8.0 0.00 0.00 0.00 78 1021.4
20260903024507 16 240 6.4 9.7 0.00 0.00 0.00 78 1021.4
20260903023507 16 235 6.4 11.3 0.00 0.00 0.00 78 1021.3
20260903022507 16 236 6.4 9.7 0.00 0.00 0.00 78 1021.2
20260903021119 16 241 6.4 8.0 0.00 0.00 0.00 79 1021.2
20260903020507 16 227 6.4 9.7 0.00 0.00 0.00 78 1021.2
20260903015507 16 235 4.8 8.0 0.00 0.00 0.00 78 1021.2
20260903014119 16 250 6.4 11.3 0.00 0.00 0.00 77 1021.2
20260903013506 16 244 6.4 9.7 0.00 0.00 0.00 78 1021.2
20260903012506 16 248 6.4 9.7 0.00 0.00 0.00 77 1021.2
20260903011120 16 215 6.4 11.3 0.00 0.00 0.00 78 1021.0
20260903010507 16 216 4.8 9.7 0.00 0.00 0.00 78 1020.8
20260903005507 16 262 6.4 11.3 0.00 0.00 0.00 79 1021.0
20260903004120 16 235 6.4 8.0 0.00 0.00 0.00 81 1021.1
20260903003507 16 215 4.8 6.4 0.00 0.00 0.00 81 1021.0
20260903002507 16 221 4.8 6.4 0.00 0.00 0.00 79 1020.8
20260903001519 16 217 6.4 8.0 0.00 0.00 0.00 80 1020.8
20260903000506 16 210 4.8 6.4 0.00 0.00 0.00 81 1020.9
20260902235506 16 225 3.2 4.8 0.00 0.00 0.00 80 1020.8
20260902234120 16 218 3.2 4.8 0.00 0.00 0.00 79 1020.8
20260902233506 16 226 3.2 4.8 0.00 0.00 0.00 80 1020.8
20260902232506 16 226 4.8 8.0 0.00 0.00 0.00 79 1021.0
20260902231507 16 225 6.4 8.0 0.00 0.00 0.00 79 1021.0
20260902230506 16 231 4.8 6.4 0.00 0.00 0.00 79 1021.1
20260902225507 16 235 4.8 6.4 0.00 0.00 0.00 78 1021.1
20260902224120 16 227 4.8 6.4 0.00 0.00 0.00 78 1021.0
20260902223507 17 238 3.2 4.8 0.00 0.00 0.00 78 1020.9
20260902222507 17 246 3.2 3.2 0.00 0.00 0.00 77 1020.9
20260902221120 17 264 3.2 3.2 0.00 0.00 0.00 76 1020.9
20260902220506 17 237 3.2 4.8 0.00 0.00 0.00 76 1020.7
20260902215506 17 255 1.6 3.2 0.00 0.00 0.00 76 1020.6
20260902214120 17 307 3.2 4.8 0.00 0.00 0.00 76 1020.5
20260902213506 17 302 1.6 4.8 0.00 0.00 0.00 76 1020.6
20260902211120 17 331 1.6 3.2 0.00 0.00 0.00 75 1020.3
20260902210507 17 320 1.6 3.2 0.00 0.00 0.00 75 1020.3
20260902205507 17 355 0.0 3.2 0.00 0.00 0.00 76 1020.5
20260902204121 17 2 1.6 4.8 0.00 0.00 0.00 74 1020.4
20260902203506 17 7 1.6 4.8 0.00 0.00 0.00 73 1020.4
20260902202507 17 146 4.8 6.4 0.00 0.00 0.00 72 1020.4
20260902201120 18 140 6.4 8.0 0.00 0.00 0.00 72 1020.3
20260902200507 18 138 3.2 8.0 0.00 0.00 0.00 70 1020.2
20260902195507 19 123 3.2 6.4 0.00 0.00 0.00 67 1020.1
20260902194120 20 121 4.8 6.4 0.00 0.00 0.00 64 1020.0
20260902193507 21 128 4.8 8.0 0.00 0.00 0.00 57 1019.7
20260902192506 21 118 4.8 8.0 0.00 0.00 0.00 56 1019.7
20260902191120 21 87 6.4 11.3 0.00 0.00 0.00 55 1019.6
20260902190507 22 63 9.7 12.9 0.00 0.00 0.00 53 1019.5
20260902185507 22 68 9.7 14.5 0.00 0.00 0.00 53 1019.5
20260902184120 22 82 8.0 16.1 0.00 0.00 0.00 53 1019.3
20260902183507 22 95 4.8 11.3 0.00 0.00 0.00 54 1019.2
20260902182507 22 92 4.8 12.9 0.00 0.00 0.00 53 1019.1
20260902181120 22 72 9.7 14.5 0.00 0.00 0.00 50 1018.7
20260902180507 22 65 11.3 14.5 0.00 0.00 0.00 50 1018.7
20260902175507 23 63 11.3 16.1 0.00 0.00 0.00 49 1018.5
20260902174120 23 64 11.3 17.7 0.00 0.00 0.00 49 1018.4
20260902173506 23 66 12.9 17.7 0.00 0.00 0.00 49 1018.5
20260902172507 23 63 9.7 16.1 0.00 0.00 0.00 48 1018.4
20260902171120 23 47 9.7 16.1 0.00 0.00 0.00 46 1018.4
20260902170507 24 49 9.7 16.1 0.00 0.00 0.00 45 1018.4
20260902165507 24 46 8.0 14.5 0.00 0.00 0.00 44 1018.3
20260902164120 25 354 6.4 9.7 0.00 0.00 0.00 43 1018.3
20260902163507 25 341 4.8 9.7 0.00 0.00 0.00 41 1018.1
20260902162507 25 328 6.4 11.3 0.00 0.00 0.00 38 1018.0
20260902161120 25 285 4.8 14.5 0.00 0.00 0.00 38 1018.1
20260902160506 25 280 4.8 9.7 0.00 0.00 0.00 38 1018.0
20260902155507 26 310 6.4 14.5 0.00 0.00 0.00 36 1018.0
20260902154120 26 274 6.4 12.9 0.00 0.00 0.00 37 1018.1
20260902153507 26 270 8.0 16.1 0.00 0.00 0.00 38 1018.2
20260902152506 25 254 8.0 14.5 0.00 0.00 0.00 36 1018.2
20260902151120 26 280 8.0 17.7 0.00 0.00 0.00 36 1018.2
20260902150507 26 322 3.2 12.9 0.00 0.00 0.00 35 1018.1
20260902145507 26 352 6.4 16.1 0.00 0.00 0.00 37 1018.4
20260902144120 26 275 6.4 17.7 0.00 0.00 0.00 38 1018.4
20260902143506 26 285 4.8 12.9 0.00 0.00 0.00 38 1018.5
20260902142507 25 238 4.8 11.3 0.00 0.00 0.00 39 1018.7
20260902141120 25 258 6.4 14.5 0.00 0.00 0.00 39 1018.7
20260902140507 25 280 6.4 16.1 0.00 0.00 0.00 38 1018.7
20260902135507 26 275 6.4 14.5 0.00 0.00 0.00 40 1018.6
20260902134118 25 251 4.8 17.7 0.00 0.00 0.00 41 1018.8
20260902133507 25 302 4.8 16.1 0.00 0.00 0.00 40 1018.8
20260902132507 25 321 3.2 14.5 0.00 0.00 0.00 42 1018.9
20260902131120 25 251 4.8 14.5 0.00 0.00 0.00 42 1019.1
20260902130507 24 236 4.8 11.3 0.00 0.00 0.00 44 1019.3
20260902125507 24 293 4.8 11.3 0.00 0.00 0.00 44 1019.3
20260902124119 23 266 6.4 12.9 0.00 0.00 0.00 45 1019.4
20260902123507 25 325 4.8 11.3 0.00 0.00 0.00 44 1019.4
20260902122507 24 323 4.8 11.3 0.00 0.00 0.00 45 1019.4
20260902121120 24 333 4.8 9.7 0.00 0.00 0.00 44 1019.5
20260902120506 24 294 4.8 12.9 0.00 0.00 0.00 44 1019.6
20260902115506 23 300 3.2 9.7 0.00 0.00 0.00 46 1019.6
20260902114120 23 314 3.2 8.0 0.00 0.00 0.00 46 1019.9
20260902113507 24 17 6.4 11.3 0.00 0.00 0.00 45 1019.8
20260902112507 24 349 6.4 11.3 0.00 0.00 0.00 46 1019.9
20260902111120 24 345 4.8 11.3 0.00 0.00 0.00 45 1020.0
20260902110507 24 353 6.4 11.3 0.00 0.00 0.00 46 1020.2
20260902105506 23 352 4.8 9.7 0.00 0.00 0.00 47 1020.3
20260902104120 23 308 3.2 11.3 0.00 0.00 0.00 48 1020.4
20260902103507 23 311 4.8 11.3 0.00 0.00 0.00 47 1020.4
20260902102506 23 299 4.8 11.3 0.00 0.00 0.00 48 1020.5
20260902101120 23 327 4.8 11.3 0.00 0.00 0.00 48 1020.5
20260902100507 24 357 6.4 12.9 0.00 0.00 0.00 46 1020.4
20260902095507 23 334 4.8 11.3 0.00 0.00 0.00 48 1020.5
20260902094120 23 321 6.4 14.5 0.00 0.00 0.00 49 1020.6
20260902093507 23 5 4.8 14.5 0.00 0.00 0.00 50 1020.6
20260902092507 22 251 3.2 9.7 0.00 0.00 0.00 54 1020.7
20260902091119 22 261 3.2 8.0 0.00 0.00 0.00 53 1020.8
20260902090507 21 311 3.2 8.0 0.00 0.00 0.00 55 1020.9
20260902084119 21 257 3.2 8.0 0.00 0.00 0.00 57 1021.0
20260902083507 21 292 3.2 8.0 0.00 0.00 0.00 60 1021.2
20260902082507 21 305 4.8 9.7 0.00 0.00 0.00 60 1021.1
20260902081119 20 286 3.2 11.3 0.00 0.00 0.00 63 1021.2
20260902080506 20 286 4.8 9.7 0.00 0.00 0.00 63 1021.2
20260902075507 19 289 3.2 8.0 0.00 0.00 0.00 66 1021.3
20260902074120 19 288 3.2 8.0 0.00 0.00 0.00 67 1021.5